NEE-02 KRYSAOR

Last updated on Thu Nov 21 2024 00:03:39 GMT+0000 (Coordinated Universal Time)

1 39441U 13066AB 24325.50644650 .00004147 00000+0 50321-3 0 9992 2 39441 97.8372 261.3740 0072459 145.6935 214.8990 14.82227219591075
UTC large
Height (km)
Speed (km/s)
/
Latitude / Longitude
Inclination (degrees)
Orbital Period (minutes)
Azimuth
Elevation
Range (km)
Doppler Factor

Next 0 passes for location: London (51.5072 / 0.1276)

Sorry there are no passes over London.